TimeEDT,TemperatureF,Dew PointF,Humidity,Sea Level PressureIn,VisibilityMPH,Wind Direction,Wind SpeedMPH,Gust SpeedMPH,PrecipitationIn,Events,Conditions,WindDirDegrees,DateUTC
12:53 AM,61.0,55.9,83,29.76,10.0,NW,9.2,-,N/A,,Clear,310,2013-06-15 04:53:00
1:53 AM,61.0,55.0,81,29.77,10.0,WNW,8.1,-,N/A,,Mostly Cloudy,300,2013-06-15 05:53:00
2:53 AM,61.0,54.0,78,29.78,10.0,NNW,8.1,-,N/A,,Clear,330,2013-06-15 06:53:00
3:53 AM,61.0,55.0,81,29.80,10.0,NW,9.2,-,N/A,,Clear,320,2013-06-15 07:53:00
4:53 AM,61.0,54.0,78,29.82,10.0,NW,10.4,-,N/A,,Clear,320,2013-06-15 08:53:00
5:53 AM,61.0,54.0,78,29.84,10.0,NNW,9.2,-,N/A,,Clear,330,2013-06-15 09:53:00
6:53 AM,64.0,52.0,65,29.86,10.0,NNW,12.7,-,N/A,,Clear,330,2013-06-15 10:53:00
7:53 AM,66.0,52.0,60,29.88,10.0,North,9.2,-,N/A,,Clear,360,2013-06-15 11:53:00
8:53 AM,69.1,52.0,54,29.90,10.0,North,9.2,-,N/A,,Clear,360,2013-06-15 12:53:00
9:53 AM,71.1,50.0,47,29.91,10.0,NNW,8.1,-,N/A,,Clear,340,2013-06-15 13:53:00
10:53 AM,73.0,50.0,44,29.92,10.0,NW,9.2,-,N/A,,Clear,320,2013-06-15 14:53:00
11:53 AM,75.0,46.0,36,29.91,10.0,North,9.2,-,N/A,,Clear,350,2013-06-15 15:53:00
12:53 PM,75.9,46.9,36,29.92,10.0,Variable,4.6,-,N/A,,Clear,0,2013-06-15 16:53:00
1:53 PM,73.0,54.0,51,29.93,10.0,South,9.2,-,N/A,,Clear,190,2013-06-15 17:53:00
2:53 PM,71.1,55.0,57,29.92,10.0,SSW,15.0,-,N/A,,Clear,200,2013-06-15 18:53:00
3:53 PM,71.1,57.9,63,29.91,10.0,SSW,11.5,-,N/A,,Clear,210,2013-06-15 19:53:00
4:53 PM,73.9,51.1,45,29.90,10.0,SW,11.5,18.4,N/A,,Clear,220,2013-06-15 20:53:00
5:53 PM,72.0,48.9,44,29.90,10.0,WSW,13.8,-,N/A,,Clear,240,2013-06-15 21:53:00
6:53 PM,69.1,52.0,54,29.91,10.0,WSW,9.2,-,N/A,,Clear,240,2013-06-15 22:53:00
7:53 PM,63.0,55.0,75,29.92,10.0,SSW,5.8,-,N/A,,Clear,210,2013-06-15 23:53:00
8:53 PM,62.1,52.0,70,29.93,10.0,SW,4.6,-,N/A,,Clear,230,2013-06-16 00:53:00
9:53 PM,64.9,48.9,56,29.95,10.0,West,6.9,-,N/A,,Clear,260,2013-06-16 01:53:00
10:53 PM,64.0,48.9,58,29.96,10.0,West,5.8,-,N/A,,Clear,270,2013-06-16 02:53:00
11:53 PM,64.0,51.1,63,29.97,10.0,WSW,5.8,-,N/A,,Clear,250,2013-06-16 03:53:00